User: anonymous   Login
Location: Unspecified
(0.0000°N, 0.0000°E)
Time: 08:37:49
(UTC+02:00)
Language:

ASC 2 Rocket - Orbit

View from above orbital plane
View from above orbital plane
View from above satellite
View from above satellite

Ground track
Ground track

The orbit data is extracted from the following two-line orbital elements,

1 21228U 91028B   16273.12739954  .00000348  00000-0  89964-4 0  9999
2 21228  23.9900 180.3042 1143603 123.0627  14.5546 12.53285625165003
Epoch (UTC): 29 September 2016 03:03:27
Eccentricity: 0.1143603
inclination: 23.9900°
perigee height: 555 km
apogee height: 2346 km
right ascension of ascending node: 180.3042°
argument of perigee: 123.0627°
revolutions per day: 12.53285625
mean anomaly at epoch: 14.5546°
orbit number at epoch: 16500

The dashed part of the orbit path shows where the satellite is in the earth's shadow,  

DLR